Погода в Кармане-Синдзикау

Россия / Республика Северная Осетия — Алания     43°06′51″N   44°07′08″E
темп.,
°C
ветер,
м/с
пор.,
м/с
влажн.,
%
обл.,
%
осадки,
мм/ч
давл.,
гПа
погр.,
м
15 мая, сб
сб1500:00+14ююз54552 0.0 101463
03:00+13ююз54524 0.0 101557
06:00+14ююз445541 0.0 101550
09:00+22ссв214042 0.0 1014762
12:00+22ссв434713 0.1 10141256
15:00+17ю4569100 4.6 1016512
18:00+18юз226797 1.2 101539
21:00+14ююз3362100 1.2 101634
16 мая, вс
вс1600:00+13ююз4360100 0.1 101444
03:00+12ююз436642 0.1 101447
06:00+14ююз33664 0.0 101361
09:00+20св22434 0.0 1010811
12:00+22св334512 0.0 10091273
15:00+22св334923 0.0 10081145
18:00+19всв12681 0.0 1008160
21:00+15ююз445599 0.0 100975
17 мая, пн
пн1700:00+14ююз555262 0.0 100883
03:00+14ююз564823 0.0 100889
06:00+15ююз555357 0.0 100882
09:00+24ююв13290 0.0 10061508
12:00+25св142831 0.0 10062021
15:00+22ссв334671 0.0 10061407
18:00+13зюз3585100 7.9 1010175
21:00+12юз3380100 8.7 101165
18 мая, вт
вт1800:00+11ююз337513 0.0 101032
03:00+10ююз117864 0.1 101111
06:00+11вюв2394100 0.4 1013225
09:00+12св229296 1.0 1013330
12:00+12ссв129095 0.5 1015332
15:00+13св218052 1.5 1014568
18:00+12с119097 1.5 1015337
21:00+11ю119170 2.8 101734
19 мая, ср
ср1900:00+9ююз328571 0.0 101620
03:00+9ююз32805 0.0 101719
06:00+11ююз22774 0.0 101732
09:00+16св32643 0.0 1016681
12:00+18св326323 0.1 10151034
15:00+18св336852 0.3 1014983
18:00+17всв237717 0.1 1015460
21:00+12юз33681 0.1 101636